Wind_Speed
49 49 48 48 48 47 46 46 45 43 42 42 39 39 41 44 44 44 44 44 44 46 47 46 46 45 46 46 46 46 45 44 43 42 42 41 39 38 38 38 37 37 37 37 37 37 38 38 38 38 38 37 37 36 36 36 37 38 40 42 42 39 35 31 29 28 29 29 30 31 31 31 32 32 32 31 31 31 31 31 31 31 31 31 31
48 48 48 47 45 45 45 44 43 42 42 42 40 38 41 44 45 46 48 49 48 48 49 50 50 49 49 48 46 47 48 47 46 45 45 44 40 39 39 40 39 39 39 39 39 39 40 40 40 40 39 38 37 36 36 36 37 38 40 41 39 35 31 27 26 26 26 28 29 30 31 31 31 31 32 31 30 30 30 30 30 30 30 30 30
45 46 46 46 44 43 43 43 40 40 40 40 41 38 37 40 43 47 49 50 50 50 50 52 53 55 53 50 47 46 46 47 47 47 47 46 43 41 41 41 41 41 41 41 40 40 41 41 41 41 40 39 37 36 36 37 37 39 40 39 34 30 27 25 24 24 25 27 28 29 30 30 30 31 31 31 30 29 29 30 30 29 29 29 29
44 45 45 45 44 41 43 43 36 37 39 40 40 37 37 37 41 47 49 51 52 50 48 48 50 54 55 54 53 50 48 46 45 46 45 45 44 44 43 43 43 43 42 42 41 40 40 41 42 42 40 39 38 37 37 37 38 38 38 35 30 27 25 23 23 23 24 26 27 29 29 29 30 30 31 30 30 29 29 30 29 29 28 29 30
41 43 44 44 44 44 46 43 36 37 39 41 42 39 41 42 44 47 48 50 51 50 46 45 47 51 56 57 57 55 53 50 48 46 45 43 43 44 44 44 44 44 43 43 42 42 41 41 42 41 40 38 38 37 37 37 37 37 35 31 28 26 25 23 23 23 24 25 27 28 29 29 29 30 31 30 29 29 29 30 29 28 28 29 31
39 41 42 42 44 45 46 42 39 42 40 41 44 43 43 46 47 47 48 50 50 49 48 50 51 53 56 58 59 57 55 54 52 50 48 46 44 44 44 45 45 44 44 43 42 42 41 40 40 39 38 37 37 37 37 36 36 35 32 29 27 25 24 23 23 23 23 24 26 27 28 29 30 31 31 30 29 29 29 29 28 28 29 30 32
38 40 40 42 43 44 45 43 41 45 43 39 44 46 46 49 49 46 46 49 51 51 51 54 56 56 57 57 59 59 57 55 54 52 50 48 46 45 45 45 45 45 45 43 42 41 40 39 38 38 37 37 37 37 37 36 35 33 30 28 26 25 24 23 23 24 24 23 25 27 28 29 30 31 31 30 29 29 29 29 28 28 29 31 32
37 38 39 41 43 44 44 44 43 47 47 39 41 46 48 51 51 47 45 45 48 51 54 55 56 56 56 56 57 58 59 57 54 53 52 49 46 45 45 45 45 45 45 43 42 41 40 39 38 38 38 37 37 36 36 35 33 31 29 27 26 24 23 23 24 24 24 24 25 27 29 30 31 32 31 30 29 29 29 29 28 29 30 32 33
36 37 38 40 41 43 44 45 45 48 49 42 41 45 48 51 51 51 48 46 46 46 50 55 57 57 54 53 54 55 58 58 56 55 53 51 48 46 45 45 45 45 44 43 42 41 40 39 39 38 37 37 36 36 35 34 32 31 29 27 26 25 23 23 24 25 24 24 25 27 30 31 32 32 31 30 29 29 29 29 28 29 31 32 34
34 35 36 38 40 42 44 46 47 50 50 46 44 44 47 51 52 52 51 49 49 46 47 49 53 56 56 52 50 51 54 57 57 56 55 52 50 48 46 45 44 44 44 43 42 41 40 38 37 37 36 35 35 35 34 32 31 30 29 27 26 25 24 24 25 25 25 25 26 28 30 32 33 32 30 29 29 29 29 28 29 30 31 34 36
32 32 34 36 39 41 44 47 49 51 50 48 51 48 45 48 50 52 53 51 51 50 49 48 47 50 53 51 49 47 49 53 55 55 54 53 52 50 47 45 43 43 42 41 40 39 37 36 36 36 35 34 34 34 33 31 30 30 29 27 26 25 25 25 25 25 25 25 26 28 31 33 33 32 30 29 28 28 28 28 29 31 33 36 37
27 31 34 35 37 40 43 46 49 52 50 47 53 55 50 47 46 46 48 49 51 52 51 50 46 46 48 47 46 45 46 48 51 52 50 50 51 50 47 44 42 41 40 38 37 36 35 34 35 35 34 33 33 33 32 30 30 29 29 28 27 26 25 25 26 26 26 26 27 29 31 33 33 31 30 28 28 27 27 28 30 32 35 37 39
25 31 35 35 36 39 41 45 48 52 53 45 43 52 54 52 50 48 47 47 48 51 52 52 49 48 46 44 44 44 44 45 45 46 46 46 47 46 44 41 39 38 37 36 35 35 34 34 35 35 34 33 33 33 32 31 31 30 29 28 27 27 25 26 27 27 27 27 27 29 32 33 33 31 29 28 27 27 27 29 32 35 37 39 41
28 34 34 34 35 37 40 43 48 53 56 51 41 42 49 50 48 48 51 51 51 52 52 51 52 51 48 46 45 44 45 44 42 41 41 42 42 42 40 38 37 36 35 34 34 34 33 33 35 36 35 34 34 34 33 33 32 31 30 29 28 27 26 26 27 27 27 27 28 29 32 33 32 30 28 27 26 27 28 31 34 36 39 41 42
29 33 32 33 33 34 38 41 45 51 57 57 47 40 44 44 40 39 41 43 48 53 54 51 50 51 50 49 48 46 45 45 44 41 39 40 40 39 38 36 36 35 33 33 32 32 32 33 34 35 35 35 35 35 34 34 33 32 30 29 28 27 27 27 27 28 28 28 28 29 31 33 31 29 27 26 26 28 30 33 35 38 40 40 41
29 28 29 30 30 31 35 38 41 47 55 58 54 45 43 43 39 38 37 34 35 41 49 52 50 51 51 50 50 49 47 46 46 44 41 39 39 39 38 36 35 34 33 32 31 31 32 33 34 35 35 35 35 35 34 34 33 33 31 28 28 28 27 27 28 29 29 29 28 29 31 31 30 28 27 27 28 30 32 34 36 38 38 39 40
32 30 30 28 28 29 30 34 37 41 49 56 57 50 44 46 43 38 38 39 36 34 39 46 48 50 51 51 52 51 50 49 47 46 43 41 40 40 39 37 35 34 33 32 31 31 33 34 34 34 34 35 35 35 34 34 34 34 31 29 28 28 27 27 28 29 30 29 28 28 30 30 29 28 28 29 30 32 34 36 37 37 36 39 40
32 32 31 28 26 26 27 30 33 37 43 50 57 55 47 46 46 43 38 34 38 40 40 43 43 44 48 51 52 53 52 50 48 47 44 42 41 40 38 36 34 33 33 33 32 31 32 32 32 32 32 33 34 35 35 35 35 35 32 29 29 28 28 27 28 29 30 29 27 28 29 30 29 29 29 31 33 35 36 36 36 35 36 40 41
32 30 29 29 25 24 25 26 29 33 37 43 51 57 55 49 47 49 44 35 34 36 38 42 42 40 43 47 50 53 53 51 48 46 45 43 42 42 39 36 35 34 32 32 33 32 32 31 31 31 31 33 34 34 35 35 35 35 33 31 30 29 28 26 27 29 30 28 28 28 29 30 30 30 31 33 34 36 36 35 35 35 38 42 40
31 28 26 26 24 24 24 23 26 29 32 37 42 51 57 57 53 50 50 47 40 33 33 37 38 39 39 40 43 46 50 50 48 46 44 44 44 44 43 42 40 38 36 34 34 33 33 32 31 31 32 33 34 34 35 35 35 35 34 32 32 30 28 27 28 29 29 28 27 28 29 30 30 31 32 33 35 36 35 34 34 36 40 41 38
27 24 21 21 21 24 25 23 24 26 28 32 35 41 49 56 59 57 54 51 48 44 40 36 34 37 38 38 39 40 43 46 47 46 44 44 44 45 45 45 44 42 40 38 38 37 35 35 34 33 33 34 35 35 35 35 35 35 35 33 32 31 29 28 29 29 28 28 27 27 28 29 30 31 32 33 35 34 33 34 35 38 39 38 36
26 24 23 22 19 22 25 24 24 24 25 27 31 35 39 46 53 59 59 56 55 53 49 44 40 39 39 40 41 41 42 44 47 47 45 45 46 46 46 46 45 44 41 41 43 43 41 39 38 36 36 37 37 36 36 36 36 35 34 33 32 32 32 31 30 29 28 28 28 27 27 28 29 31 32 32 32 31 32 34 37 38 37 35 35
29 30 33 33 30 27 26 23 23 23 22 23 29 35 38 41 45 51 56 58 58 56 55 54 49 45 44 43 44 45 44 45 47 46 46 46 47 47 45 45 44 43 41 41 43 45 45 43 41 40 39 40 39 38 39 40 40 39 36 34 33 33 34 32 31 30 28 29 28 27 26 27 29 30 30 30 29 30 33 35 36 35 34 34 36
32 35 36 35 35 34 33 31 27 25 27 28 30 36 38 40 44 48 51 52 56 57 57 58 55 51 48 45 45 46 46 46 46 45 45 45 45 44 43 44 43 42 40 39 40 42 43 43 42 41 41 42 42 41 40 41 43 44 41 37 35 35 35 34 33 30 29 29 28 27 26 26 28 29 29 29 28 30 33 34 34 33 33 35 37
34 36 36 35 37 38 38 37 34 32 38 42 39 39 41 41 40 42 47 49 52 56 57 58 57 57 56 53 52 50 47 47 47 44 43 42 42 42 42 42 42 42 41 39 38 39 39 40 40 40 41 43 43 43 41 40 41 45 46 42 38 36 36 35 33 30 30 30 28 27 25 25 27 28 28 28 29 30 32 33 33 33 34 35 36
40 41 39 39 41 41 42 42 41 41 45 47 45 43 44 45 41 35 37 42 49 54 58 60 59 59 61 60 59 56 52 50 50 47 45 42 42 42 41 41 41 42 43 41 38 38 38 39 39 39 40 42 43 43 43 41 40 41 45 45 40 37 37 35 33 31 31 31 29 26 24 24 26 27 27 28 29 30 31 32 33 33 34 34 36
45 46 45 45 45 44 45 46 46 46 45 46 45 44 43 45 46 42 37 36 42 48 54 60 61 63 63 61 60 59 58 56 53 49 47 45 44 44 44 43 42 42 43 42 41 40 40 41 41 40 40 41 42 43 44 43 41 39 41 43 41 38 37 35 33 32 32 32 29 26 23 24 25 26 27 27 28 29 31 32 33 33 33 34 37
46 46 48 47 47 47 48 48 48 49 47 45 45 45 44 42 44 45 41 40 43 45 46 50 55 61 64 65 62 60 61 60 56 52 49 47 46 46 46 46 44 42 42 42 43 42 42 42 43 43 42 42 43 43 44 43 42 39 39 40 41 39 36 34 33 33 34 32 29 25 23 23 25 26 27 27 27 28 30 31 32 32 32 34 37
48 44 46 47 46 47 49 50 50 51 51 49 48 47 48 46 43 42 42 41 42 44 46 45 49 56 60 63 64 63 62 60 60 58 56 53 52 50 48 47 46 43 42 42 42 42 42 42 43 44 44 44 44 44 44 43 42 39 37 38 39 39 36 34 34 34 34 32 29 26 23 23 25 26 26 26 26 28 29 30 31 31 32 35 37
46 45 48 49 49 48 50 52 53 52 53 53 52 50 50 51 50 46 44 42 40 44 46 44 48 52 54 56 59 61 63 63 63 62 62 59 56 54 52 49 48 47 45 43 42 41 41 41 42 44 45 45 45 45 44 43 41 39 37 36 36 37 36 34 35 35 33 31 29 26 24 24 25 26 26 26 26 27 28 29 30 30 32 35 36
42 43 49 54 57 55 53 54 56 56 57 57 57 55 52 54 56 53 50 47 42 43 46 43 41 43 45 46 48 53 56 59 63 65 65 62 58 55 54 52 51 50 49 46 43 42 41 41 41 43 45 46 46 45 44 43 42 39 36 35 34 35 35 34 35 35 33 31 29 26 25 25 25 26 25 25 25 27 28 28 29 30 32 35 34
49 44 47 54 60 59 57 58 59 59 60 60 62 60 56 56 57 54 51 51 48 46 46 46 41 39 39 38 39 46 50 49 52 58 61 59 56 54 54 54 52 52 51 49 46 44 43 42 41 43 45 46 46 45 44 42 41 38 36 34 34 34 34 34 34 35 33 31 29 26 25 25 26 26 25 24 25 26 27 28 29 30 32 34 33
60 52 49 54 60 60 60 61 62 62 62 62 63 62 59 59 61 58 54 51 52 52 50 48 45 44 41 37 38 46 51 50 47 48 52 53 55 55 54 54 53 52 52 50 49 47 45 44 43 44 44 45 45 45 44 42 39 38 36 33 33 34 35 34 34 35 33 31 29 26 25 26 26 26 24 23 25 26 27 27 28 30 32 32 31
62 58 54 56 61 63 63 63 64 65 65 65 64 63 61 61 63 64 63 58 55 56 56 52 48 48 46 41 43 48 52 57 55 49 47 48 51 54 54 54 54 52 52 51 50 48 48 46 44 44 44 44 44 43 43 42 40 39 37 33 33 35 36 36 36 36 33 30 28 26 26 26 26 26 24 24 25 25 26 27 28 29 31 31 30
59 58 57 57 60 63 65 65 66 66 67 68 67 66 65 65 65 64 65 65 61 58 60 59 51 46 49 48 46 49 50 54 58 56 51 47 48 52 54 55 54 53 52 51 50 49 48 47 46 45 44 43 42 41 42 42 40 40 38 33 33 36 37 37 37 36 33 30 27 25 27 26 26 26 24 24 25 25 25 26 27 28 29 29 29
58 57 57 58 59 61 64 66 67 68 69 69 69 69 68 69 68 66 64 66 65 61 61 64 59 50 49 52 51 50 49 48 52 56 55 51 49 50 51 52 54 54 53 51 50 49 48 47 46 45 44 42 40 40 41 41 40 40 38 34 34 36 38 37 37 37 34 29 26 26 27 26 26 26 24 24 25 25 25 25 26 27 28 27 28
59 59 59 59 59 60 62 65 68 70 70 71 71 71 71 71 72 70 68 68 67 65 62 62 65 62 56 55 55 53 51 48 49 51 53 53 49 47 47 48 50 52 53 53 51 49 48 47 46 45 43 41 39 39 40 40 39 39 37 35 34 36 38 37 35 36 34 29 26 26 27 26 26 26 24 24 25 25 24 24 25 27 27 26 27
60 61 61 61 61 61 62 63 66 69 72 73 74 74 73 74 75 74 73 73 71 69 67 64 65 68 65 59 56 55 53 51 51 51 52 53 50 46 43 42 45 49 51 53 52 50 49 47 46 45 42 40 39 39 39 37 36 37 37 35 34 36 38 37 33 35 35 29 26 26 27 26 26 26 24 24 25 25 24 23 25 26 25 26 27
62 62 62 62 62 62 63 63 64 67 70 73 75 76 75 76 76 76 76 77 76 73 72 70 67 67 68 66 61 58 56 53 53 55 54 52 50 48 43 38 42 45 47 51 52 50 49 48 47 45 42 40 40 40 39 36 34 36 37 36 35 36 38 38 34 36 34 28 26 26 26 26 26 26 25 25 26 24 23 23 24 24 24 25 27
62 62 62 63 63 63 63 64 65 66 67 70 73 75 76 77 77 78 77 77 78 76 74 73 71 69 69 68 65 62 60 56 54 57 56 51 50 52 48 41 42 42 42 46 49 50 49 48 46 44 42 41 41 41 39 36 33 34 36 36 36 36 39 39 36 36 34 28 27 26 25 25 25 27 26 25 26 24 23 23 24 23 23 25 26
62 62 63 63 63 64 64 65 66 67 67 68 71 73 76 77 78 78 78 77 77 77 76 75 73 72 71 70 67 64 62 60 57 58 59 54 52 55 53 48 45 43 42 44 46 48 48 47 46 43 42 42 42 41 39 36 34 34 35 37 37 38 39 39 38 36 33 29 28 27 25 24 25 27 27 26 26 25 23 22 23 22 22 24 25
62 62 63 63 63 63 64 65 66 67 69 69 70 72 74 77 78 79 79 78 78 77 77 76 74 74 73 73 70 66 64 63 60 60 60 57 53 53 54 51 48 47 45 43 43 46 47 47 46 43 42 42 41 40 40 38 35 34 35 38 39 39 39 39 38 35 33 31 29 27 25 24 26 28 27 27 26 25 23 22 23 21 21 23 24
63 63 63 63 63 63 63 63 64 66 68 70 71 72 73 75 78 79 80 79 79 78 77 77 75 74 74 74 73 70 67 66 64 61 60 57 53 51 51 53 52 51 49 45 42 44 46 46 45 44 42 42 41 40 39 38 36 34 35 38 39 40 40 40 38 35 34 32 28 27 26 25 27 28 28 27 25 24 23 22 22 21 21 22 23
62 63 62 62 61 61 61 62 63 65 67 69 72 73 74 75 77 79 80 80 80 79 79 78 76 75 74 74 73 71 69 67 65 64 61 57 54 50 49 51 52 52 50 47 44 45 46 46 46 44 43 42 42 40 38 38 37 34 35 38 40 40 41 41 39 37 35 31 28 28 28 27 27 28 28 27 25 24 22 22 22 20 19 21 21
61 61 60 60 59 59 60 61 62 63 66 68 71 73 75 76 77 78 79 80 80 80 79 79 77 75 74 74 73 71 69 67 66 65 62 59 56 52 48 45 45 46 47 45 44 45 46 47 46 45 43 43 42 41 38 38 37 35 35 38 39 41 42 42 40 39 36 31 30 30 29 27 28 29 28 27 25 23 22 21 22 19 18 19 20
58 58 57 57 57 57 57 58 60 61 63 66 69 72 75 77 78 78 79 80 81 80 80 79 78 76 75 73 72 71 69 67 66 65 63 60 57 54 49 45 41 41 43 42 42 43 44 46 46 45 44 43 41 41 38 38 38 36 36 38 39 41 43 43 41 41 38 33 32 31 29 28 30 30 28 27 25 23 21 21 22 19 17 18 18
54 54 54 53 53 53 54 55 56 58 60 63 66 69 73 76 78 79 79 80 80 81 80 79 79 78 76 74 72 72 69 67 66 65 63 60 56 53 50 48 45 42 42 41 41 40 42 44 45 45 44 42 40 40 38 38 39 38 37 38 39 41 43 44 43 43 40 35 33 31 29 29 31 32 30 28 26 23 21 22 22 19 17 17 17
48 47 47 47 47 48 49 51 52 54 56 59 62 66 70 74 77 79 79 80 80 80 80 80 79 78 77 76 74 72 70 68 67 66 64 62 58 54 52 50 48 44 41 39 39 38 39 42 45 45 44 42 40 39 37 37 40 40 38 38 40 41 43 46 46 45 41 36 33 31 30 31 32 33 33 30 27 24 22 22 22 19 17 17 16
40 39 39 39 40 41 42 44 47 49 51 54 57 61 66 70 74 77 79 79 80 80 79 79 79 78 77 77 75 74 72 70 68 68 66 65 61 57 54 52 50 46 40 37 34 32 36 40 44 45 43 41 40 39 37 37 40 41 39 39 41 42 44 46 47 46 42 37 34 32 32 33 33 34 34 33 31 27 24 22 22 19 17 17 16
32 32 32 32 32 34 35 38 40 43 45 48 51 55 60 65 70 73 76 78 79 79 78 78 78 78 77 77 76 75 73 71 70 69 68 67 64 59 56 54 52 46 40 36 32 31 37 41 42 43 41 38 38 39 38 38 38 41 41 41 42 43 44 46 48 47 42 38 34 33 34 35 34 35 35 35 34 30 25 24 22 19 17 18 16
26 26 26 26 26 27 29 31 34 37 40 43 45 49 54 59 64 69 73 76 77 78 78 77 76 77 77 77 77 76 74 73 71 70 70 69 66 62 58 56 53 48 42 40 38 36 38 41 40 40 38 34 34 36 38 38 38 40 42 42 42 43 44 46 48 47 44 39 35 33 35 36 36 36 35 36 36 32 27 25 24 20 17 18 17
Wind_Direction
250 249 249 247 246 244 242 240 239 236 234 235 237 238 232 229 229 224 223 226 227 224 220 222 228 231 231 231 232 233 234 236 238 240 242 244 246 252 258 260 260 261 263 265 267 268 270 273 276 280 283 286 288 291 293 295 297 299 301 302 301 298 297 299 302 304 305 304 303 302 301 301 301 301 300 299 297 295 294 294 294 295 296 297 298
248 245 245 244 243 242 240 239 237 235 232 233 233 234 233 229 228 224 223 226 229 228 224 224 228 232 234 235 238 240 240 240 241 242 243 243 245 251 258 261 262 263 265 267 268 270 272 275 278 280 283 285 288 290 292 294 296 299 300 299 297 295 295 299 303 305 305 304 303 302 301 301 301 301 301 300 298 296 295 295 296 297 298 299 302
246 243 241 240 237 237 238 236 234 233 227 229 233 230 232 233 230 227 224 225 228 231 230 230 230 230 232 236 240 241 243 244 245 246 246 246 247 252 258 261 263 264 266 269 270 272 274 275 278 280 282 285 287 290 292 294 296 298 298 295 292 292 294 298 303 305 304 304 303 302 301 300 300 301 301 300 298 296 296 296 297 299 300 302 306
245 243 239 237 233 228 232 234 225 228 226 222 227 226 225 227 227 227 226 228 229 231 232 235 237 234 233 234 236 237 239 241 243 245 248 250 251 254 257 260 263 265 267 270 272 275 276 277 278 280 283 285 287 289 291 293 295 296 294 289 287 290 294 298 301 303 303 303 303 301 300 300 300 301 300 299 298 296 296 297 299 301 303 306 310
243 243 239 235 231 223 226 231 215 215 226 222 220 219 221 221 224 227 225 228 231 232 231 233 236 236 235 234 235 236 238 239 240 242 245 249 252 253 256 258 262 265 268 271 273 276 278 279 279 281 283 285 287 289 290 292 293 291 287 283 284 290 294 296 298 301 302 303 303 301 299 300 301 301 300 299 297 296 297 299 301 304 307 311 313
240 240 239 234 231 225 225 227 209 207 222 227 221 216 220 224 227 230 227 227 230 232 230 231 233 235 236 235 235 237 239 240 241 243 245 248 251 253 255 258 261 265 268 271 274 276 278 280 281 282 284 286 287 288 289 289 289 285 280 278 283 291 295 294 296 299 301 303 304 302 300 300 302 302 301 299 297 297 298 300 303 306 310 313 314
241 238 236 234 230 227 224 222 208 204 217 226 227 222 222 228 231 232 230 230 230 231 231 232 235 237 238 238 237 237 239 241 242 244 246 248 251 253 256 258 261 265 268 272 274 276 279 281 283 284 286 286 287 287 287 286 284 278 275 278 284 292 294 292 294 297 299 303 304 302 302 301 303 304 302 299 298 298 299 302 305 308 312 314 314
243 239 234 232 230 226 222 219 208 204 214 222 226 227 226 229 233 232 231 232 233 234 234 234 236 238 240 241 240 239 240 241 243 244 246 248 250 253 256 259 262 265 268 271 274 277 279 282 285 286 286 285 285 285 283 282 277 272 273 278 285 291 292 291 293 295 297 300 302 303 303 303 304 305 303 300 299 298 300 303 306 309 313 313 313
242 241 236 232 229 226 221 217 209 203 213 222 221 224 227 229 232 232 232 232 233 235 236 236 236 237 240 242 243 242 242 242 243 244 246 248 251 254 257 259 261 265 268 271 274 277 280 283 285 286 285 283 281 281 278 275 271 269 273 278 284 289 290 289 291 292 294 297 299 302 304 304 305 306 304 300 299 299 301 304 307 311 313 312 312
242 241 238 234 229 226 221 216 210 203 210 223 221 219 224 227 230 232 233 232 232 234 236 237 239 239 240 241 243 244 244 243 244 246 247 248 252 255 258 260 262 265 268 271 274 277 280 283 284 284 281 278 277 276 272 268 266 269 273 278 282 286 287 288 290 290 292 294 296 300 303 304 305 305 303 300 299 299 303 306 309 312 312 310 311
243 243 239 236 231 225 222 216 211 204 207 223 223 217 219 224 227 231 234 233 232 234 237 238 241 243 242 242 243 245 245 244 245 247 249 250 252 255 258 261 263 266 268 271 274 276 280 283 282 279 276 273 272 269 265 263 265 269 274 278 281 283 285 287 288 289 291 292 294 299 302 304 304 304 302 299 299 301 305 307 309 311 310 309 310
246 248 242 237 233 227 223 217 212 207 207 219 223 219 219 222 224 227 233 235 234 234 238 240 242 245 245 244 244 246 247 246 248 249 251 252 252 254 258 261 264 265 267 270 272 276 281 283 279 273 269 266 266 263 261 263 267 271 275 277 278 280 282 285 287 288 290 292 293 297 301 303 303 302 301 299 299 302 306 307 309 310 309 309 310
243 248 242 236 233 229 224 219 212 208 207 211 222 224 223 225 228 230 232 235 236 237 239 241 243 245 245 246 246 248 249 249 250 250 251 252 253 254 257 260 262 263 266 269 272 277 282 282 276 268 264 262 261 260 261 265 269 272 275 276 276 277 280 283 284 286 290 291 292 295 299 302 302 301 300 299 300 304 306 307 309 309 309 309 311
242 245 242 237 234 229 225 221 213 209 209 209 216 225 226 228 231 235 237 238 238 239 241 242 243 244 244 245 247 249 250 250 249 249 249 251 252 253 255 257 259 261 265 270 275 279 282 279 270 264 261 260 261 262 264 268 271 273 274 274 274 275 279 281 283 286 289 290 291 295 299 301 302 301 300 300 302 304 305 308 309 310 310 311 314
243 246 245 241 236 232 226 223 217 211 210 212 214 220 226 227 229 234 239 242 243 242 241 242 242 243 244 244 246 248 250 250 249 248 249 250 251 252 253 255 258 262 266 271 276 279 278 273 265 260 260 260 262 264 267 269 271 272 272 272 272 274 279 281 282 285 287 288 290 294 299 301 301 301 301 301 303 304 306 308 310 311 312 315 317
241 246 248 244 238 236 231 227 223 216 212 214 216 220 224 225 228 234 237 241 246 246 241 239 241 242 243 243 245 246 248 250 250 250 250 251 252 253 253 255 258 262 266 270 273 273 270 266 261 259 259 261 263 265 267 269 270 270 270 269 269 272 277 280 282 285 285 286 289 294 298 300 300 301 300 301 303 304 307 309 311 313 315 319 320
243 245 247 245 238 237 234 230 227 222 217 216 219 222 223 225 228 230 236 240 244 247 245 243 244 244 244 244 245 246 247 248 250 250 251 251 253 255 256 257 259 262 266 269 270 267 263 262 259 259 259 260 262 264 266 267 267 268 268 268 267 270 275 279 283 284 283 284 288 294 297 299 299 300 299 301 303 305 308 310 313 314 316 321 322
249 250 253 251 243 238 236 232 230 227 223 219 220 223 223 226 227 228 233 241 246 247 250 251 249 247 245 246 246 246 248 248 249 250 251 253 255 257 258 259 259 262 267 269 268 262 259 259 259 259 259 260 261 263 265 266 265 266 267 267 265 267 273 278 282 282 280 282 287 293 296 297 299 300 300 302 305 308 310 311 313 313 317 322 323
256 255 260 261 255 250 245 239 234 230 229 225 222 224 226 226 228 230 229 232 244 247 251 253 253 252 249 248 246 245 247 248 250 251 252 254 256 257 257 256 256 259 263 265 263 259 257 258 259 260 260 261 263 264 266 266 264 264 266 266 264 265 270 277 281 279 277 280 286 292 294 296 299 300 301 304 307 310 312 312 312 314 318 322 323
258 261 265 270 272 270 265 257 249 241 235 232 228 226 227 228 229 231 230 232 234 235 246 251 253 256 253 249 246 245 246 247 249 250 252 254 256 257 257 258 258 260 260 258 257 256 256 258 260 261 262 263 265 267 268 268 265 264 265 265 264 263 267 275 279 276 274 278 285 290 294 297 301 302 303 306 309 312 313 314 315 316 319 322 324
255 265 271 278 284 281 277 274 269 263 254 247 242 236 232 231 232 232 232 232 231 234 239 238 242 251 250 246 242 243 245 247 248 249 251 254 256 258 259 260 261 261 260 257 252 251 254 256 259 262 264 265 267 268 269 269 266 264 264 262 262 263 266 273 276 273 272 277 283 288 293 298 302 304 305 309 312 315 317 318 318 319 321 323 326
244 249 250 250 254 260 268 278 281 276 273 267 259 253 247 241 237 236 236 233 233 236 236 232 237 243 245 244 240 241 243 245 248 248 251 254 257 258 260 261 262 261 260 257 250 248 251 254 257 260 262 265 266 267 268 269 267 265 264 261 259 261 265 270 274 272 271 276 281 286 292 298 303 305 307 312 316 320 321 321 321 321 323 325 327
232 231 231 226 218 220 231 245 259 263 264 264 260 257 255 251 247 243 241 239 237 237 235 235 239 239 240 242 241 243 244 245 247 249 252 254 255 257 258 259 260 260 258 255 251 249 252 255 257 258 259 261 262 263 265 266 267 266 265 262 257 258 262 267 271 270 270 275 278 284 291 298 303 305 309 315 319 321 323 323 324 325 326 327 328
237 233 231 227 219 213 211 210 219 234 237 233 237 242 244 247 249 247 246 246 244 242 240 239 239 236 236 240 244 247 245 243 247 250 252 252 252 254 256 257 256 255 254 252 251 251 253 257 258 258 258 258 259 260 261 263 264 265 266 264 259 258 261 265 267 266 269 273 276 281 290 297 301 304 309 315 319 321 324 327 328 327 327 327 328
247 240 235 232 227 221 216 209 203 212 221 218 217 222 226 232 238 245 247 247 248 246 245 243 241 237 236 241 247 249 245 244 248 250 250 249 252 255 255 254 253 251 250 250 251 252 254 257 258 258 258 257 258 259 260 262 263 263 263 263 262 260 261 263 263 264 268 270 273 279 288 296 300 304 309 314 318 322 327 330 330 328 327 327 330
244 238 233 230 228 224 220 215 208 211 216 215 214 213 215 219 219 225 234 239 246 248 248 246 245 242 240 243 245 246 245 248 252 250 246 247 251 255 254 253 252 250 248 248 251 253 256 259 259 259 259 258 259 259 260 262 264 263 261 261 260 258 259 260 260 263 265 267 271 277 286 294 299 303 307 312 317 322 327 330 330 328 327 329 333
239 234 231 229 227 225 221 216 213 215 218 216 216 216 216 219 217 216 214 217 229 238 245 247 248 246 243 244 244 243 245 249 252 249 246 247 252 253 252 253 253 251 249 249 250 253 257 260 261 260 260 260 260 260 260 261 263 264 262 259 256 254 256 257 259 261 263 265 269 276 285 292 297 301 305 311 317 322 327 329 329 328 328 331 334
234 231 229 230 228 227 222 218 218 220 221 218 217 219 220 222 221 220 214 211 215 221 231 241 247 248 244 242 243 242 245 248 249 247 246 249 254 252 250 252 253 253 252 251 252 254 257 259 260 260 260 260 260 260 260 260 261 263 262 259 255 254 255 258 259 260 261 264 268 275 283 290 295 299 304 310 316 322 326 327 328 328 330 333 333
232 229 225 226 228 231 227 221 221 222 222 220 220 220 220 221 221 220 219 218 217 214 217 223 231 238 240 240 241 242 244 246 247 248 248 252 256 253 251 253 253 253 254 255 255 256 258 259 259 260 261 260 260 260 260 260 261 262 263 260 257 254 254 256 257 257 259 263 268 274 281 288 293 296 302 308 315 322 325 326 328 329 331 332 332
228 227 222 219 220 230 233 226 224 223 223 223 223 223 220 220 221 222 223 223 221 218 218 219 223 230 237 240 242 244 246 247 248 250 251 255 256 252 251 255 255 255 257 258 258 258 259 259 260 261 261 260 260 260 260 261 261 262 262 260 256 253 251 251 253 254 257 261 267 274 280 286 291 295 301 307 315 321 324 326 328 329 330 330 331
227 228 224 220 217 222 229 229 228 227 225 224 224 225 222 220 222 225 225 225 226 226 226 228 229 232 236 240 244 246 250 252 251 252 254 255 255 251 251 254 257 257 258 260 259 260 260 258 259 260 260 260 260 260 260 262 263 261 260 258 255 251 248 248 251 253 254 259 266 273 279 283 288 294 300 307 315 320 323 326 328 328 328 329 329
232 235 231 226 222 223 226 228 229 230 228 225 225 226 224 221 222 223 222 224 227 228 230 230 232 235 234 236 241 241 246 252 254 254 254 253 252 251 251 253 256 258 258 259 259 261 260 257 257 258 259 260 260 261 261 263 263 261 259 256 252 248 245 245 249 252 252 256 264 270 276 282 287 292 299 307 313 318 323 326 327 327 327 328 328
238 241 237 231 228 230 231 231 230 231 231 228 226 228 226 222 222 222 221 223 225 226 229 231 232 236 234 233 234 234 235 239 244 249 250 251 251 251 252 252 254 255 256 256 257 259 259 256 257 257 258 259 260 262 262 263 263 261 257 254 249 245 242 242 246 249 250 254 261 267 273 279 285 291 298 305 311 317 322 325 326 326 326 327 327
242 244 241 236 235 236 237 235 233 231 232 231 229 229 228 224 224 225 224 225 227 227 228 230 233 236 235 232 233 232 233 234 236 239 242 244 247 248 248 249 250 251 252 253 255 257 256 256 257 258 259 259 260 261 262 262 262 260 256 251 246 243 240 240 244 247 248 252 259 265 271 277 283 289 297 303 309 315 321 324 326 326 326 326 326
246 246 244 241 239 239 239 238 236 233 232 232 231 230 229 227 225 225 226 226 228 229 227 227 229 234 233 230 232 231 232 236 236 237 239 240 242 243 244 244 245 247 249 250 253 255 255 256 257 257 258 258 258 260 260 261 261 258 254 247 242 240 239 239 243 247 246 250 258 265 270 276 281 287 294 301 307 314 321 325 326 326 326 325 325
248 247 246 244 242 240 240 239 238 237 234 233 231 230 230 229 228 226 226 226 226 228 228 226 225 228 231 230 230 231 233 236 237 238 241 244 244 245 246 246 246 247 248 248 251 252 254 256 257 257 257 257 257 257 257 258 259 256 251 244 239 237 237 238 243 246 245 249 257 264 270 274 279 285 292 299 306 313 321 327 326 325 325 324 324
248 247 245 244 242 241 239 238 238 237 236 234 232 231 230 230 230 228 227 227 227 228 229 228 227 227 231 231 230 232 233 235 235 237 241 243 245 248 252 253 252 250 250 250 251 251 253 256 257 258 257 257 257 255 255 256 256 255 250 243 237 236 236 236 242 246 244 248 255 262 269 272 278 285 291 298 305 312 322 328 326 325 325 323 324
248 247 246 244 243 241 239 238 237 236 236 235 233 232 231 229 230 230 229 229 231 232 232 231 231 230 230 230 230 230 231 233 231 233 239 239 240 245 248 252 254 253 252 252 252 252 253 256 257 257 257 256 256 255 253 253 254 253 249 241 235 234 236 235 240 245 242 245 254 260 267 271 278 284 290 297 303 312 323 328 327 325 323 322 323
250 248 247 246 244 242 240 239 238 238 237 236 234 233 232 230 230 231 230 231 233 235 234 232 232 231 229 230 232 230 229 231 230 231 237 236 234 238 238 241 249 253 253 252 251 252 252 255 257 257 256 255 255 255 253 251 252 251 247 241 235 232 233 233 237 243 240 243 251 257 265 270 277 284 289 296 301 311 323 328 327 325 322 321 322
252 250 249 247 245 243 242 240 239 238 237 237 236 235 234 232 230 230 231 231 232 234 234 233 232 231 229 230 232 232 229 230 229 229 234 234 232 233 232 234 243 248 250 250 250 250 251 254 256 256 256 255 255 255 253 250 248 248 244 240 235 231 232 232 235 241 239 241 250 255 262 269 276 282 287 293 300 310 321 326 327 324 321 321 322
254 252 250 248 246 244 242 241 239 238 237 237 237 236 235 234 233 232 231 230 231 232 232 233 232 231 231 230 231 232 230 230 229 228 231 234 234 233 231 232 238 242 245 248 249 249 250 252 254 255 255 254 255 254 253 249 245 244 241 237 233 231 232 231 234 239 238 241 249 254 259 266 274 279 284 291 299 308 318 325 326 323 319 320 321
255 254 252 250 248 246 244 242 240 239 237 237 236 236 236 235 235 234 232 231 230 231 231 232 231 231 232 232 231 232 231 230 231 229 231 234 236 235 233 233 235 238 242 248 251 249 248 251 253 253 254 253 253 254 254 250 245 241 237 234 232 232 232 231 233 237 238 241 248 253 257 264 270 275 281 288 296 305 315 324 326 321 318 319 320
256 255 254 252 250 248 246 244 242 240 239 237 237 236 236 236 235 235 234 232 231 231 231 231 231 231 232 232 232 232 231 231 231 231 230 233 236 236 234 233 234 236 240 245 250 249 246 248 251 252 252 253 252 253 256 253 246 239 235 233 231 231 231 230 232 234 235 240 246 251 255 259 266 271 278 284 291 301 311 322 325 320 316 317 318
258 258 256 255 253 251 249 246 244 241 239 238 237 236 236 236 236 235 235 233 232 231 231 231 231 230 231 232 232 232 231 229 230 231 230 230 234 237 236 235 235 237 240 243 248 248 244 243 247 250 251 252 251 252 257 257 248 239 234 232 230 230 231 229 231 233 234 238 244 249 252 256 262 268 272 278 286 296 307 319 323 319 315 315 316
261 260 260 258 257 255 252 249 246 243 240 238 237 236 235 235 235 235 235 234 233 232 231 231 231 230 231 231 231 231 230 229 229 230 230 230 233 236 236 234 234 239 241 242 245 246 243 241 244 249 251 252 250 251 258 260 251 240 233 231 229 229 231 230 231 233 233 236 242 246 249 253 259 263 267 273 281 292 303 315 321 317 312 313 313
263 262 261 260 258 256 254 251 248 245 242 240 237 236 235 235 235 235 235 235 234 232 231 231 231 230 230 230 231 231 230 229 228 228 229 229 231 233 233 230 229 234 237 239 243 246 246 243 244 248 251 252 251 250 258 261 253 242 233 231 229 228 229 229 230 232 232 234 241 244 248 253 258 261 263 268 277 288 299 310 317 315 309 309 310
263 263 262 261 260 258 256 254 250 247 243 240 238 236 235 235 234 234 234 235 234 233 231 231 230 230 230 230 230 231 230 228 228 228 227 227 228 230 231 230 228 230 235 239 243 248 250 246 244 248 251 252 252 251 257 261 254 244 234 230 230 228 228 228 230 232 231 234 240 242 246 253 258 260 262 266 275 285 294 304 313 312 307 305 306
264 263 263 262 261 259 257 255 253 249 245 242 239 237 236 235 234 234 234 234 235 234 232 230 230 229 229 229 230 230 230 228 227 227 226 224 226 228 230 230 229 229 233 238 243 251 255 251 245 248 252 253 252 252 258 260 253 245 236 230 230 228 228 229 231 233 231 233 240 244 246 251 257 262 263 266 273 282 289 298 307 308 303 298 300
262 262 261 261 260 258 257 256 254 252 248 244 241 238 237 235 235 234 234 234 235 235 233 231 230 228 227 228 229 229 229 228 227 227 226 224 225 227 228 228 227 226 227 233 242 250 254 251 247 248 251 254 253 253 258 259 253 247 238 231 230 229 228 230 232 233 231 232 241 249 251 252 257 262 265 268 273 280 286 291 300 304 298 291 292
261 260 258 257 256 255 253 253 253 253 251 247 243 240 238 236 235 235 235 234 235 235 234 232 231 228 227 226 227 227 228 228 227 226 226 225 224 224 225 224 224 223 222 227 232 238 244 247 248 250 250 252 253 253 258 260 255 249 242 233 231 231 230 230 233 233 230 231 240 252 255 253 255 259 263 267 271 277 282 286 295 302 294 285 285
265 263 260 257 255 252 249 249 249 250 251 249 246 242 239 237 236 235 234 234 235 235 235 234 232 230 227 226 225 226 226 227 227 225 225 226 224 222 222 222 221 219 219 223 223 225 235 240 241 244 243 243 248 253 258 261 257 251 245 238 232 232 232 232 234 234 230 229 236 249 254 253 253 254 258 264 269 273 278 281 289 298 291 280 279
Height
10814 10814 10815 10816 10817 10819 10821 10823 10825 10828 10830 10832 10834 10837 10840 10843 10845 10848 10851 10852 10854 10856 10858 10859 10860 10861 10861 10862 10862 10864 10865 10867 10868 10870 10871 10872 10873 10874 10874 10875 10876 10876 10876 10876 10876 10877 10877 10877 10877 10877 10877 10878 10878 10878 10878 10877 10876 10875 10874 10873 10872 10871 10870 10869 10868 10866 10865 10863 10862 10861 10859 10858 10856 10854 10853 10851 10849 10847 10846 10844 10842 10840 10839 10837 10835
10808 10809 10810 10811 10813 10814 10817 10820 10822 10825 10827 10829 10831 10834 10836 10838 10841 10844 10847 10848 10850 10852 10854 10855 10856 10857 10858 10859 10860 10861 10863 10864 10866 10867 10868 10869 10871 10871 10872 10873 10873 10874 10873 10873 10874 10874 10875 10875 10875 10875 10875 10876 10876 10876 10875 10874 10874 10873 10872 10870 10870 10869 10868 10866 10865 10864 10863 10861 10860 10859 10857 10856 10854 10852 10850 10849 10847 10845 10843 10842 10840 10838 10837 10835 10833
10802 10803 10804 10806 10809 10811 10813 10816 10819 10822 10824 10826 10828 10831 10833 10835 10838 10841 10843 10844 10846 10848 10850 10851 10851 10853 10854 10856 10857 10858 10860 10862 10863 10864 10865 10867 10868 10869 10869 10870 10871 10871 10871 10871 10872 10872 10873 10873 10873 10873 10874 10874 10873 10873 10872 10872 10871 10870 10869 10868 10868 10867 10866 10864 10863 10862 10861 10859 10858 10857 10855 10854 10852 10850 10848 10847 10845 10843 10842 10840 10838 10836 10834 10833 10831
10797 10798 10800 10801 10804 10807 10809 10812 10817 10819 10821 10824 10826 10829 10831 10832 10834 10837 10839 10841 10843 10845 10847 10848 10849 10850 10851 10852 10853 10855 10856 10858 10860 10861 10863 10864 10866 10866 10867 10868 10868 10869 10869 10869 10869 10870 10870 10871 10871 10871 10871 10871 10871 10870 10870 10869 10869 10868 10867 10866 10866 10865 10864 10862 10861 10860 10859 10857 10856 10855 10853 10852 10850 10848 10846 10845 10843 10842 10840 10838 10836 10834 10833 10831 10829
10792 10793 10795 10797 10800 10803 10805 10808 10814 10817 10818 10820 10823 10826 10828 10828 10829 10833 10836 10837 10839 10842 10844 10845 10845 10846 10847 10848 10850 10852 10853 10855 10857 10858 10860 10862 10863 10864 10865 10866 10866 10866 10866 10866 10867 10868 10868 10868 10868 10869 10869 10869 10868 10867 10867 10867 10866 10866 10865 10864 10864 10863 10861 10860 10859 10858 10857 10856 10854 10853 10851 10850 10848 10846 10844 10843 10841 10840 10838 10836 10834 10833 10831 10829 10827
10788 10789 10791 10793 10796 10798 10801 10804 10810 10814 10816 10817 10820 10823 10825 10825 10827 10830 10832 10834 10836 10838 10840 10841 10841 10842 10843 10845 10847 10848 10850 10852 10854 10855 10857 10859 10860 10861 10862 10863 10864 10864 10864 10864 10865 10865 10865 10865 10866 10866 10866 10866 10865 10865 10865 10864 10864 10863 10862 10862 10861 10860 10859 10858 10857 10856 10855 10854 10852 10851 10850 10848 10846 10844 10842 10841 10839 10838 10836 10834 10833 10831 10829 10828 10826
10784 10785 10787 10789 10792 10794 10797 10801 10806 10810 10813 10815 10816 10820 10821 10822 10824 10827 10829 10831 10832 10834 10835 10836 10837 10838 10840 10841 10843 10845 10847 10849 10851 10853 10854 10856 10857 10859 10860 10861 10861 10861 10862 10862 10862 10862 10863 10862 10863 10863 10863 10863 10862 10862 10862 10862 10861 10861 10860 10859 10859 10858 10857 10856 10855 10854 10853 10852 10850 10849 10847 10846 10844 10842 10840 10839 10837 10836 10834 10832 10831 10830 10828 10827 10825
10780 10782 10783 10785 10788 10791 10794 10798 10802 10806 10810 10812 10813 10815 10818 10818 10820 10823 10825 10827 10828 10830 10831 10832 10833 10835 10836 10838 10840 10842 10844 10846 10848 10850 10851 10853 10854 10856 10857 10858 10859 10859 10859 10859 10860 10860 10860 10860 10860 10861 10861 10860 10860 10859 10859 10859 10859 10858 10857 10857 10857 10856 10855 10854 10853 10852 10850 10849 10848 10847 10845 10844 10842 10840 10838 10837 10835 10834 10832 10831 10830 10828 10827 10825 10823
10778 10779 10780 10782 10785 10788 10791 10794 10798 10801 10805 10807 10808 10810 10812 10814 10816 10818 10820 10822 10824 10826 10827 10828 10829 10831 10832 10834 10837 10839 10841 10843 10845 10846 10848 10850 10851 10853 10855 10856 10856 10856 10857 10857 10857 10857 10857 10857 10857 10858 10857 10857 10857 10857 10856 10856 10856 10855 10855 10855 10854 10854 10853 10852 10851 10850 10848 10847 10846 10845 10843 10842 10840 10838 10836 10835 10833 10832 10830 10829 10828 10827 10825 10823 10821
10775 10776 10778 10780 10782 10785 10788 10790 10793 10796 10800 10802 10804 10806 10808 10809 10811 10813 10816 10818 10820 10821 10822 10824 10825 10826 10828 10831 10833 10835 10837 10840 10842 10843 10844 10846 10848 10850 10852 10853 10853 10854 10854 10854 10854 10854 10855 10855 10855 10855 10854 10854 10854 10854 10854 10854 10853 10853 10853 10853 10852 10852 10851 10850 10849 10848 10847 10845 10844 10843 10841 10840 10838 10836 10834 10833 10831 10830 10829 10827 10826 10825 10823 10822 10820
10774 10775 10776 10777 10779 10782 10784 10787 10789 10792 10797 10799 10799 10802 10804 10806 10808 10809 10811 10814 10816 10817 10819 10820 10822 10822 10824 10827 10829 10831 10834 10836 10838 10839 10841 10843 10845 10847 10849 10850 10850 10851 10851 10851 10851 10851 10852 10852 10852 10852 10852 10852 10852 10852 10851 10851 10851 10851 10851 10850 10850 10849 10849 10848 10847 10846 10845 10844 10843 10841 10840 10838 10836 10834 10832 10830 10829 10828 10827 10826 10825 10823 10822 10820 10818
10774 10773 10773 10774 10776 10778 10781 10784 10787 10790 10794 10797 10797 10799 10801 10803 10805 10807 10809 10811 10813 10814 10815 10817 10819 10820 10821 10824 10826 10828 10830 10833 10835 10836 10838 10839 10841 10843 10845 10846 10847 10847 10848 10848 10847 10848 10849 10850 10849 10849 10849 10849 10849 10849 10849 10849 10848 10848 10848 10848 10847 10847 10846 10845 10845 10844 10843 10842 10841 10839 10838 10836 10834 10832 10830 10828 10827 10826 10825 10824 10823 10821 10820 10818 10816
10774 10770 10769 10771 10773 10775 10778 10781 10785 10789 10792 10795 10796 10798 10800 10802 10803 10805 10806 10808 10810 10811 10813 10815 10816 10817 10819 10821 10823 10825 10827 10830 10832 10833 10834 10836 10837 10839 10842 10843 10843 10844 10844 10844 10844 10845 10846 10847 10847 10846 10847 10847 10847 10847 10847 10846 10846 10846 10846 10845 10845 10845 10844 10843 10842 10842 10841 10840 10839 10837 10836 10834 10832 10830 10828 10826 10825 10824 10823 10822 10821 10819 10818 10816 10814
10771 10765 10765 10768 10770 10773 10776 10779 10783 10786 10790 10793 10795 10797 10799 10802 10803 10804 10805 10807 10808 10809 10810 10812 10814 10815 10817 10819 10821 10823 10825 10827 10829 10830 10831 10832 10834 10836 10838 10839 10840 10840 10841 10840 10840 10841 10842 10843 10844 10844 10844 10844 10844 10844 10844 10844 10843 10843 10843 10843 10842 10842 10842 10841 10841 10840 10839 10838 10837 10836 10834 10832 10830 10828 10826 10825 10823 10822 10821 10821 10819 10818 10816 10814 10812
10765 10761 10764 10766 10769 10772 10774 10777 10781 10785 10789 10792 10795 10796 10798 10801 10803 10803 10805 10806 10806 10807 10808 10810 10812 10813 10815 10817 10819 10821 10823 10824 10825 10827 10828 10829 10830 10832 10834 10836 10837 10837 10837 10837 10837 10837 10839 10840 10841 10841 10841 10841 10841 10841 10841 10841 10841 10840 10841 10840 10840 10840 10839 10839 10839 10838 10837 10836 10835 10834 10832 10830 10828 10826 10825 10823 10822 10821 10820 10819 10818 10816 10814 10812 10810
10761 10761 10763 10766 10770 10772 10775 10778 10781 10785 10788 10791 10794 10796 10798 10800 10801 10803 10804 10804 10804 10805 10806 10808 10810 10811 10813 10815 10817 10819 10820 10821 10822 10824 10825 10826 10827 10829 10831 10833 10834 10834 10834 10834 10834 10834 10835 10837 10838 10838 10839 10838 10838 10838 10838 10838 10838 10838 10838 10838 10838 10838 10837 10837 10837 10836 10835 10834 10833 10832 10830 10828 10826 10825 10823 10822 10820 10819 10818 10817 10816 10814 10812 10810 10808
10761 10762 10763 10766 10770 10772 10775 10778 10781 10785 10788 10792 10794 10796 10798 10799 10800 10802 10803 10803 10803 10804 10805 10807 10809 10810 10811 10813 10814 10816 10817 10818 10819 10820 10822 10823 10824 10825 10827 10829 10831 10831 10831 10831 10831 10831 10832 10833 10835 10836 10836 10835 10835 10835 10835 10835 10835 10835 10835 10836 10835 10835 10835 10835 10835 10834 10833 10832 10832 10830 10828 10826 10825 10823 10821 10820 10819 10818 10817 10816 10814 10812 10810 10808 10806
10762 10763 10765 10768 10770 10773 10776 10778 10781 10784 10788 10791 10793 10795 10797 10798 10799 10801 10803 10803 10803 10804 10804 10805 10807 10808 10809 10810 10812 10813 10814 10815 10816 10817 10819 10820 10821 10822 10824 10826 10827 10828 10829 10828 10828 10828 10829 10830 10832 10832 10832 10832 10832 10832 10832 10832 10832 10832 10833 10833 10833 10833 10833 10833 10833 10832 10831 10830 10830 10829 10827 10825 10823 10822 10820 10819 10818 10816 10815 10814 10812 10810 10808 10806 10803
10763 10766 10768 10770 10773 10775 10776 10779 10781 10783 10786 10789 10791 10793 10795 10796 10797 10799 10801 10803 10803 10803 10803 10803 10804 10806 10807 10808 10808 10810 10811 10812 10814 10815 10816 10817 10818 10819 10820 10822 10824 10826 10827 10826 10825 10826 10827 10828 10829 10830 10829 10829 10829 10829 10829 10830 10830 10829 10830 10830 10830 10830 10831 10831 10830 10830 10829 10828 10828 10827 10825 10823 10822 10820 10819 10818 10816 10815 10813 10812 10810 10808 10806 10803 10801
10763 10768 10772 10773 10775 10777 10778 10781 10782 10783 10785 10786 10789 10790 10792 10793 10794 10795 10797 10800 10802 10803 10803 10803 10802 10803 10804 10805 10806 10807 10808 10810 10811 10812 10814 10815 10815 10816 10817 10818 10821 10823 10825 10825 10823 10823 10824 10825 10826 10827 10827 10826 10826 10827 10827 10827 10827 10827 10827 10827 10827 10828 10828 10828 10828 10827 10827 10827 10826 10825 10823 10822 10820 10819 10818 10816 10815 10813 10811 10810 10808 10806 10804 10801 10798
10766 10772 10776 10777 10777 10777 10778 10780 10782 10783 10784 10785 10786 10787 10788 10789 10790 10791 10793 10796 10798 10799 10801 10802 10801 10801 10801 10802 10803 10804 10805 10807 10808 10810 10811 10812 10812 10813 10813 10814 10816 10819 10822 10822 10821 10820 10820 10822 10824 10824 10824 10823 10824 10824 10824 10824 10825 10825 10825 10825 10825 10825 10825 10826 10826 10825 10825 10825 10824 10823 10822 10820 10819 10818 10817 10815 10813 10811 10810 10808 10807 10804 10802 10799 10796
10769 10773 10774 10774 10776 10779 10779 10781 10782 10782 10783 10785 10784 10784 10784 10785 10786 10787 10788 10790 10792 10795 10798 10799 10800 10800 10800 10800 10801 10802 10803 10804 10805 10806 10808 10808 10809 10810 10810 10810 10812 10815 10817 10819 10818 10816 10816 10818 10820 10821 10821 10821 10821 10821 10821 10821 10822 10822 10822 10822 10823 10823 10823 10823 10823 10823 10822 10822 10822 10821 10820 10818 10817 10816 10815 10813 10812 10810 10808 10807 10805 10802 10799 10797 10795
10766 10766 10764 10764 10767 10771 10775 10779 10779 10780 10782 10783 10782 10780 10779 10780 10781 10782 10784 10786 10788 10790 10792 10794 10796 10798 10797 10797 10798 10798 10800 10801 10802 10803 10805 10805 10806 10806 10806 10807 10808 10810 10813 10814 10815 10814 10813 10814 10816 10818 10818 10818 10818 10818 10818 10818 10819 10819 10819 10820 10820 10820 10820 10820 10820 10820 10820 10820 10820 10819 10818 10817 10816 10815 10813 10812 10810 10809 10807 10805 10802 10800 10797 10795 10793
10764 10761 10760 10761 10762 10763 10764 10766 10770 10775 10775 10775 10776 10773 10773 10775 10775 10777 10780 10782 10785 10786 10788 10789 10791 10793 10794 10794 10795 10795 10796 10797 10799 10800 10801 10802 10802 10802 10803 10803 10804 10806 10808 10810 10811 10811 10810 10811 10812 10814 10815 10815 10815 10816 10816 10816 10816 10816 10817 10817 10818 10818 10817 10817 10817 10817 10817 10817 10817 10816 10816 10815 10814 10813 10811 10810 10809 10807 10805 10803 10800 10798 10796 10794 10792
10766 10763 10762 10762 10760 10758 10757 10755 10757 10758 10756 10756 10758 10759 10761 10764 10768 10772 10775 10779 10780 10781 10783 10785 10786 10788 10788 10789 10791 10792 10793 10794 10795 10797 10798 10798 10798 10799 10799 10799 10800 10801 10804 10806 10807 10808 10807 10808 10809 10810 10811 10811 10812 10812 10813 10814 10814 10813 10814 10815 10815 10815 10815 10815 10814 10815 10815 10814 10814 10814 10813 10813 10812 10811 10809 10808 10807 10805 10803 10801 10799 10796 10794 10792 10790
10759 10761 10761 10758 10753 10750 10750 10751 10750 10747 10746 10747 10748 10750 10752 10753 10758 10763 10768 10774 10777 10777 10778 10779 10781 10782 10783 10784 10786 10788 10789 10790 10791 10793 10794 10795 10795 10795 10795 10795 10796 10797 10799 10802 10803 10804 10804 10804 10805 10806 10807 10808 10808 10809 10809 10810 10811 10811 10811 10812 10812 10812 10812 10812 10812 10812 10812 10812 10812 10811 10811 10810 10809 10809 10807 10806 10805 10803 10802 10799 10797 10795 10793 10791 10788
10745 10752 10755 10750 10745 10743 10742 10744 10746 10745 10746 10747 10748 10750 10751 10751 10753 10755 10757 10763 10768 10771 10772 10773 10774 10775 10777 10779 10780 10782 10784 10786 10787 10789 10790 10791 10792 10792 10792 10792 10792 10793 10795 10797 10799 10800 10800 10800 10801 10802 10803 10804 10805 10805 10805 10806 10808 10808 10808 10809 10810 10810 10809 10809 10809 10809 10809 10810 10810 10809 10809 10808 10807 10806 10805 10804 10803 10801 10799 10797 10795 10794 10791 10789 10786
10731 10741 10746 10743 10739 10735 10735 10737 10739 10739 10741 10744 10745 10746 10748 10750 10753 10754 10754 10754 10754 10758 10762 10766 10767 10766 10769 10772 10774 10777 10779 10781 10783 10784 10786 10787 10788 10788 10788 10789 10789 10790 10791 10793 10794 10796 10797 10797 10797 10798 10799 10800 10801 10801 10801 10802 10804 10805 10806 10806 10807 10807 10807 10806 10807 10806 10807 10808 10808 10807 10807 10806 10805 10804 10803 10802 10801 10799 10797 10795 10794 10792 10789 10787 10784
10722 10731 10738 10738 10734 10727 10727 10731 10732 10733 10735 10738 10740 10741 10743 10746 10749 10751 10753 10752 10751 10750 10749 10749 10750 10753 10758 10764 10768 10772 10774 10777 10778 10780 10781 10782 10784 10785 10785 10785 10786 10787 10788 10789 10790 10792 10793 10793 10793 10794 10795 10796 10797 10798 10798 10798 10800 10801 10802 10803 10803 10804 10804 10804 10804 10804 10805 10805 10806 10805 10805 10804 10803 10802 10801 10800 10799 10797 10795 10794 10792 10790 10788 10785 10783
10716 10723 10729 10730 10726 10720 10719 10723 10725 10728 10730 10733 10734 10735 10738 10741 10743 10745 10746 10748 10750 10749 10744 10741 10743 10748 10755 10761 10766 10769 10771 10773 10774 10775 10777 10778 10779 10780 10781 10782 10783 10784 10784 10785 10786 10787 10789 10790 10790 10790 10791 10792 10793 10794 10795 10795 10796 10798 10799 10799 10800 10800 10800 10800 10800 10801 10802 10803 10803 10803 10803 10802 10801 10799 10799 10798 10797 10795 10794 10792 10790 10788 10786 10784 10782
10710 10714 10718 10719 10717 10713 10713 10716 10718 10721 10724 10727 10728 10729 10732 10734 10736 10737 10740 10743 10745 10746 10745 10745 10747 10751 10756 10761 10766 10768 10769 10770 10770 10770 10771 10773 10774 10776 10777 10778 10779 10780 10781 10782 10782 10783 10784 10786 10787 10787 10787 10788 10789 10791 10792 10792 10792 10794 10795 10796 10796 10797 10797 10797 10798 10799 10800 10801 10801 10801 10801 10800 10799 10798 10797 10796 10795 10793 10792 10790 10789 10787 10784 10782 10780
10705 10708 10711 10712 10711 10709 10708 10710 10711 10713 10716 10720 10721 10723 10725 10727 10728 10730 10733 10736 10738 10740 10741 10743 10746 10750 10752 10755 10760 10763 10764 10765 10764 10762 10763 10766 10768 10770 10771 10773 10774 10775 10777 10778 10778 10779 10780 10782 10783 10783 10784 10785 10785 10787 10788 10788 10789 10790 10792 10793 10793 10794 10794 10795 10795 10796 10797 10798 10799 10799 10799 10798 10797 10796 10795 10794 10793 10791 10790 10788 10786 10785 10783 10781 10778
10698 10702 10706 10707 10706 10705 10705 10706 10706 10707 10709 10712 10714 10716 10719 10721 10722 10724 10727 10729 10732 10734 10736 10738 10742 10744 10747 10750 10752 10752 10753 10755 10754 10753 10754 10757 10760 10762 10764 10766 10768 10770 10771 10772 10773 10774 10775 10777 10778 10779 10780 10781 10781 10782 10783 10784 10786 10787 10788 10789 10790 10791 10791 10792 10792 10793 10794 10796 10797 10797 10797 10796 10795 10794 10793 10792 10791 10789 10788 10786 10785 10783 10781 10779 10777
10692 10696 10699 10701 10701 10700 10699 10700 10702 10702 10703 10704 10707 10709 10711 10714 10716 10717 10721 10723 10726 10728 10731 10733 10736 10738 10742 10745 10743 10741 10741 10742 10743 10745 10746 10748 10750 10753 10755 10758 10761 10762 10764 10765 10767 10768 10769 10771 10773 10774 10776 10777 10777 10778 10778 10779 10781 10783 10784 10786 10787 10788 10789 10789 10789 10790 10792 10793 10794 10795 10795 10795 10793 10792 10791 10790 10789 10787 10786 10784 10783 10781 10779 10777 10775
10685 10688 10691 10693 10694 10694 10693 10693 10695 10697 10697 10698 10700 10703 10704 10706 10709 10711 10714 10716 10719 10721 10724 10727 10729 10730 10733 10735 10733 10733 10734 10735 10739 10741 10742 10743 10743 10744 10747 10750 10753 10755 10757 10759 10761 10763 10764 10766 10768 10769 10771 10772 10773 10773 10774 10775 10777 10779 10781 10782 10783 10785 10786 10786 10787 10788 10789 10791 10792 10793 10793 10792 10791 10790 10789 10788 10787 10786 10784 10783 10781 10779 10778 10776 10774
10678 10680 10682 10684 10685 10686 10685 10686 10687 10689 10691 10692 10693 10696 10697 10699 10701 10704 10706 10708 10710 10713 10715 10719 10722 10723 10726 10726 10727 10729 10730 10733 10736 10739 10741 10742 10743 10743 10745 10748 10750 10751 10753 10754 10756 10758 10760 10761 10763 10765 10766 10768 10769 10769 10770 10771 10773 10775 10777 10778 10779 10781 10783 10784 10785 10785 10787 10789 10790 10790 10790 10790 10789 10788 10787 10786 10785 10784 10783 10781 10779 10778 10776 10774 10772
10668 10670 10672 10674 10675 10676 10676 10677 10678 10680 10682 10685 10687 10689 10691 10692 10694 10697 10698 10699 10702 10705 10708 10712 10715 10717 10719 10720 10722 10725 10728 10729 10731 10734 10738 10740 10743 10745 10747 10749 10749 10749 10750 10751 10753 10755 10756 10758 10759 10761 10763 10764 10765 10766 10766 10767 10769 10771 10773 10775 10776 10778 10780 10782 10782 10783 10785 10786 10787 10788 10788 10788 10787 10786 10785 10784 10783 10782 10781 10779 10778 10776 10774 10773 10771
10658 10660 10661 10663 10664 10666 10667 10668 10670 10671 10673 10675 10678 10681 10683 10686 10687 10689 10691 10693 10695 10698 10700 10704 10707 10710 10712 10714 10717 10720 10723 10724 10726 10730 10732 10734 10738 10742 10745 10747 10745 10745 10747 10748 10750 10752 10753 10755 10756 10758 10759 10760 10761 10762 10763 10764 10766 10767 10770 10771 10773 10775 10777 10779 10780 10780 10782 10784 10785 10785 10786 10786 10785 10785 10784 10782 10781 10781 10779 10778 10776 10775 10773 10771 10769
10647 10649 10651 10653 10655 10657 10659 10660 10662 10664 10665 10667 10670 10672 10675 10678 10680 10682 10684 10687 10689 10691 10694 10697 10701 10703 10705 10707 10710 10714 10717 10718 10721 10725 10726 10729 10733 10736 10740 10741 10740 10740 10742 10744 10746 10748 10750 10752 10753 10754 10755 10756 10757 10759 10760 10761 10762 10764 10766 10768 10770 10772 10774 10776 10777 10777 10780 10782 10782 10783 10784 10784 10783 10783 10782 10781 10780 10779 10778 10776 10775 10773 10772 10770 10768
10637 10639 10641 10643 10645 10647 10650 10652 10653 10655 10657 10659 10662 10664 10667 10670 10672 10674 10676 10679 10682 10684 10686 10690 10694 10696 10698 10701 10704 10708 10710 10712 10716 10719 10721 10725 10728 10730 10734 10736 10735 10736 10737 10738 10741 10744 10746 10748 10750 10751 10752 10753 10754 10755 10757 10758 10759 10761 10763 10765 10767 10769 10771 10773 10774 10775 10778 10779 10780 10781 10782 10782 10781 10780 10780 10779 10778 10777 10776 10774 10773 10772 10770 10768 10766
10627 10628 10630 10632 10635 10637 10640 10642 10644 10646 10648 10650 10652 10655 10658 10661 10664 10666 10669 10672 10675 10677 10679 10683 10686 10689 10691 10694 10697 10701 10704 10707 10710 10713 10716 10719 10722 10725 10728 10731 10732 10732 10733 10734 10737 10739 10742 10744 10746 10747 10749 10749 10750 10752 10753 10754 10755 10757 10760 10761 10763 10765 10767 10770 10771 10773 10775 10777 10777 10779 10780 10779 10779 10778 10777 10777 10776 10776 10774 10773 10771 10770 10768 10767 10765
10616 10618 10620 10622 10624 10627 10630 10632 10635 10637 10639 10641 10643 10645 10648 10650 10654 10657 10660 10664 10667 10670 10672 10675 10679 10682 10684 10687 10691 10694 10698 10701 10704 10708 10710 10714 10717 10720 10723 10727 10728 10729 10730 10732 10734 10736 10738 10740 10742 10744 10745 10746 10748 10749 10750 10751 10752 10754 10756 10758 10760 10762 10765 10767 10768 10770 10772 10773 10774 10776 10777 10777 10776 10775 10775 10775 10775 10774 10773 10772 10770 10768 10767 10765 10764
10607 10608 10610 10612 10614 10617 10621 10624 10626 10629 10631 10632 10634 10636 10638 10640 10643 10646 10649 10654 10658 10661 10664 10667 10671 10675 10677 10680 10684 10688 10692 10695 10698 10702 10706 10709 10713 10715 10718 10721 10723 10725 10727 10729 10731 10732 10733 10735 10738 10740 10742 10744 10746 10747 10747 10748 10749 10751 10753 10755 10757 10759 10761 10763 10765 10767 10769 10770 10772 10773 10774 10774 10773 10773 10772 10772 10773 10772 10771 10770 10768 10767 10765 10764 10763
10598 10599 10601 10603 10605 10609 10611 10614 10616 10618 10620 10622 10624 10626 10628 10630 10633 10635 10639 10643 10647 10651 10655 10658 10663 10667 10670 10673 10677 10681 10686 10690 10693 10696 10700 10704 10708 10711 10714 10717 10719 10722 10724 10726 10726 10727 10729 10731 10733 10736 10739 10741 10743 10745 10745 10746 10747 10748 10750 10752 10755 10757 10758 10760 10762 10764 10765 10767 10769 10770 10770 10770 10770 10770 10770 10770 10770 10770 10769 10768 10767 10765 10764 10763 10761
10590 10591 10593 10595 10597 10599 10601 10603 10605 10607 10609 10611 10613 10616 10618 10621 10623 10626 10629 10633 10637 10641 10645 10649 10655 10659 10663 10666 10670 10674 10680 10684 10687 10690 10694 10698 10703 10707 10710 10714 10718 10719 10720 10721 10722 10723 10725 10727 10730 10733 10736 10738 10741 10743 10743 10744 10744 10745 10747 10749 10752 10755 10756 10757 10759 10760 10762 10764 10766 10767 10768 10768 10767 10767 10767 10767 10768 10768 10767 10766 10765 10764 10763 10761 10760
10583 10583 10584 10586 10588 10589 10591 10592 10594 10596 10598 10600 10603 10605 10607 10610 10613 10616 10619 10622 10627 10631 10636 10641 10646 10651 10655 10659 10663 10667 10672 10678 10682 10685 10688 10692 10697 10701 10706 10711 10714 10715 10716 10718 10719 10721 10723 10725 10728 10731 10734 10736 10738 10741 10741 10742 10742 10743 10744 10746 10749 10752 10753 10755 10756 10757 10759 10761 10762 10764 10765 10766 10765 10764 10764 10764 10765 10765 10765 10764 10763 10762 10761 10760 10759
10575 10576 10577 10578 10579 10581 10581 10582 10583 10585 10588 10590 10592 10594 10597 10600 10602 10606 10609 10613 10616 10621 10626 10632 10637 10642 10647 10651 10656 10659 10665 10671 10675 10679 10682 10686 10691 10696 10700 10705 10709 10711 10713 10715 10717 10720 10722 10724 10727 10729 10731 10734 10736 10738 10739 10740 10740 10740 10741 10743 10746 10749 10751 10752 10753 10754 10756 10758 10759 10762 10764 10764 10763 10763 10762 10762 10762 10763 10763 10762 10761 10760 10759 10758 10757
10569 10570 10570 10571 10572 10573 10573 10573 10574 10576 10578 10580 10582 10585 10587 10590 10593 10596 10600 10603 10607 10611 10616 10622 10627 10633 10639 10644 10648 10652 10657 10663 10668 10672 10676 10680 10685 10690 10695 10699 10704 10708 10711 10714 10716 10719 10721 10723 10726 10727 10729 10732 10734 10735 10736 10737 10737 10737 10739 10740 10742 10745 10748 10749 10750 10751 10753 10755 10757 10760 10762 10762 10761 10761 10761 10761 10761 10761 10761 10761 10760 10759 10757 10756 10756
10564 10564 10564 10565 10565 10566 10566 10566 10566 10567 10569 10571 10574 10576 10578 10581 10584 10587 10591 10594 10598 10602 10607 10613 10618 10624 10630 10635 10640 10645 10650 10655 10660 10664 10669 10674 10679 10684 10689 10694 10698 10703 10708 10711 10714 10719 10721 10722 10723 10725 10727 10730 10732 10733 10733 10734 10734 10735 10737 10737 10738 10741 10744 10746 10747 10748 10751 10753 10755 10758 10759 10760 10760 10760 10760 10760 10759 10760 10760 10759 10759 10758 10756 10755 10754
10559 10559 10559 10560 10560 10560 10560 10560 10560 10560 10562 10563 10566 10568 10570 10572 10575 10579 10582 10586 10590 10593 10598 10604 10609 10616 10622 10627 10632 10637 10642 10647 10651 10656 10662 10667 10673 10679 10684 10689 10693 10698 10703 10705 10709 10715 10717 10719 10721 10722 10724 10727 10729 10729 10730 10730 10731 10733 10734 10735 10736 10738 10741 10744 10744 10746 10749 10751 10753 10756 10757 10758 10758 10757 10757 10757 10757 10758 10759 10758 10757 10757 10755 10754 10753
10554 10554 10554 10555 10555 10555 10556 10555 10555 10555 10555 10556 10558 10560 10562 10564 10567 10570 10574 10578 10582 10585 10590 10595 10601 10608 10613 10618 10623 10629 10635 10639 10644 10649 10654 10660 10667 10673 10679 10683 10688 10693 10695 10696 10700 10706 10709 10713 10716 10717 10719 10722 10724 10726 10726 10727 10729 10730 10731 10733 10734 10736 10739 10741 10741 10744 10747 10749 10750 10752 10753 10754 10755 10755 10755 10754 10754 10756 10757 10756 10755 10755 10754 10752 10751